TimeCDT,TemperatureF,Dew PointF,Humidity,Sea Level PressureIn,VisibilityMPH,Wind Direction,Wind SpeedMPH,Gust SpeedMPH,PrecipitationIn,Events,Conditions,WindDirDegrees,DateUTC
12:53 AM,81.0,59.0,47,30.06,10.0,SE,6.9,-,N/A,,Clear,130,2013-09-06 05:53:00
1:53 AM,80.1,62.1,54,30.05,10.0,Calm,Calm,-,N/A,,Clear,0,2013-09-06 06:53:00
2:53 AM,77.0,62.1,60,30.05,10.0,Calm,Calm,-,N/A,,Clear,0,2013-09-06 07:53:00
3:53 AM,75.0,66.0,73,30.05,10.0,South,4.6,-,N/A,,Clear,170,2013-09-06 08:53:00
4:53 AM,75.9,66.9,74,30.05,10.0,Calm,Calm,-,N/A,,Clear,0,2013-09-06 09:53:00
5:53 AM,75.0,68.0,79,30.05,10.0,South,4.6,-,N/A,,Clear,180,2013-09-06 10:53:00
6:53 AM,73.9,68.0,82,30.06,10.0,South,4.6,-,N/A,,Clear,180,2013-09-06 11:53:00
7:53 AM,75.9,69.1,79,30.07,9.0,Calm,Calm,-,N/A,,Clear,0,2013-09-06 12:53:00
8:53 AM,82.0,71.1,69,30.09,10.0,SSW,4.6,-,N/A,,Clear,210,2013-09-06 13:53:00
9:53 AM,87.1,69.1,55,30.09,10.0,Calm,Calm,-,N/A,,Clear,0,2013-09-06 14:53:00
10:53 AM,90.0,68.0,48,30.10,10.0,NW,3.5,-,N/A,,Clear,310,2013-09-06 15:53:00
11:53 AM,91.9,64.9,41,30.08,10.0,West,4.6,-,N/A,,Partly Cloudy,260,2013-09-06 16:53:00
12:53 PM,96.1,63.0,33,30.06,10.0,Variable,3.5,-,N/A,,Partly Cloudy,0,2013-09-06 17:53:00
1:53 PM,98.1,59.0,27,30.03,10.0,Variable,4.6,-,N/A,,Mostly Cloudy,0,2013-09-06 18:53:00
2:53 PM,96.1,60.1,30,30.00,10.0,Calm,Calm,-,N/A,,Clear,0,2013-09-06 19:53:00
3:53 PM,98.1,57.9,26,29.97,10.0,ESE,4.6,-,N/A,,Clear,120,2013-09-06 20:53:00
4:53 PM,98.1,55.9,24,29.96,10.0,North,9.2,-,N/A,,Mostly Cloudy,360,2013-09-06 21:53:00
5:53 PM,98.1,57.0,25,29.95,10.0,Variable,3.5,-,N/A,,Partly Cloudy,0,2013-09-06 22:53:00
6:53 PM,96.1,57.9,28,29.95,10.0,NE,3.5,-,N/A,,Clear,50,2013-09-06 23:53:00
7:53 PM,91.9,59.0,33,29.96,10.0,Calm,Calm,-,N/A,,Clear,0,2013-09-07 00:53:00
8:53 PM,89.1,60.1,38,29.97,10.0,Calm,Calm,-,N/A,,Clear,0,2013-09-07 01:53:00
9:53 PM,84.0,61.0,46,29.98,10.0,SE,3.5,-,N/A,,Mostly Cloudy,140,2013-09-07 02:53:00
10:53 PM,84.9,62.1,46,29.98,10.0,SSE,5.8,-,N/A,,Mostly Cloudy,160,2013-09-07 03:53:00
11:53 PM,84.0,66.0,55,29.98,10.0,South,10.4,-,N/A,,Clear,190,2013-09-07 04:53:00